This is the latest recevied weather packets stored in our database for station/object SR3WXD. If no packets are shown the sender has not sent any weather packets the latest 10 day(s).
| Time | Temp. | Humidity | Pressure | Rain* | Wind** | Luminosity | Snow |
|---|---|---|---|---|---|---|---|
| 1777632931 | 25° C | 23% | 1002.5 hPa | 0 mm | - | - | - |
| 1777631131 | 23.89° C | 25% | 1002.5 hPa | 0 mm | - | - | - |
| 1777629331 | 23.89° C | 25% | 1002.9 hPa | 0 mm | - | - | - |
| 1777627523 | 22.78° C | 26% | 1003.2 hPa | 0 mm | - | - | - |
| 1777555667 | 21.11° C | 23% | 1004.2 hPa | 0 mm | - | - | - |
| 1777555618 | 21.67° C | 23% | 1004.2 hPa | 0 mm | - | - | - |
| 1777553818 | 20° C | 24% | 1004.5 hPa | 0 mm | - | - | - |
| 1777552018 | 18.33° C | 25% | 1004.9 hPa | 0 mm | - | - | - |
| 1777551662 | 18.33° C | 25% | 1005 hPa | 0 mm | - | - | - |
| 1777551472 | 17.78° C | 26% | 1005 hPa | 0 mm | - | - | - |
| 1777472791 | 13.33° C | 22% | 1004.5 hPa | 0 mm | - | - | - |
| 1777470991 | 14.44° C | 20% | 1004.2 hPa | 0 mm | - | - | - |
| 1777469191 | 15.56° C | 20% | 1004.5 hPa | 0 mm | - | - | - |
| 1777467391 | 14.44° C | 20% | 1004.5 hPa | 0 mm | - | - | - |
| 1777465591 | 15.56° C | 20% | 1004.5 hPa | 0 mm | - | - | - |
| 1777463791 | 14.44° C | 20% | 1004.5 hPa | 0 mm | - | - | - |
| 1777409716 | 2.22° C | 54% | 999.7 hPa | 0 mm | - | - | - |
| 1777407916 | 2.78° C | 51% | 999.7 hPa | 0 mm | - | - | - |
| 1777406116 | 3.33° C | 50% | 999.5 hPa | 0 mm | - | - | - |
| 1777404316 | 4.44° C | 49% | 999.5 hPa | 0 mm | - | - | - |
| 1777402516 | 5.56° C | 44% | 999.2 hPa | 0 mm | - | - | - |
| 1777400716 | 7.78° C | 34% | 999.2 hPa | 0 mm | - | - | - |
| 1777398916 | 9.44° C | 30% | 999 hPa | 0 mm | - | - | - |
| 1777397116 | 11.11° C | 26% | 999 hPa | 0 mm | - | - | - |
| 1777395316 | 11.67° C | 26% | 998.7 hPa | 0 mm | - | - | - |
* Rain latest hour (hover to see other rain measurements)
** Current wind speed in m/s (hover to see current wind gust speed)